McHenry, MD

9:46 PM EDT on July 28, 2016 (GMT -0400)
Oakland

Weather History for K2G4 - June, 2012

Change the Weather History Date:

Wednesday, June 13, 2012

  Actual Average (KMGW) Record (KMGW)
Temperature  
Mean Temperature 60 °F 69 °F  
Max Temperature 68 °F 80 °F 97 °F (1967)
Min Temperature 51 °F 58 °F 44 °F (1974)
Degree Days  
Heating Degree Days 6 1  
Month to date heating degree days 22  
Since 1 June heating degree days 22  
Since 1 July heating degree days 5175  
Cooling Degree Days 0 5  
Month to date cooling degree days 50  
Year to date cooling degree days 117  
Since 1 June cooling degree days 50  
Growing Degree Days 10 (Base 50)    
Moisture  
Dew Point 46 °F    
Average Humidity 67    
Maximum Humidity 100    
Minimum Humidity 30    
Precipitation  
Precipitation 0.00 in 0.14 in 1.42 in (1951)
Month to date precipitation 1.77  
Year to date precipitation 18.96  
Sea Level Pressure  
Sea Level Pressure 30.12 in    
Wind  
Wind Speed 6 mph (NNW)    
Max Wind Speed 13 mph    
Max Gust Speed 18 mph    
Visibility 7 miles    
Events Fog    
T = Trace of Precipitation, MM = Missing Value Source: NWS Daily Summary

Daily Weather History Graph

Daily Weather History Graph

Search for Another Location

Airport or City:

Trip Planner

Search our weather history database for the weather conditions in past years. The results will help you decide how hot, cold, wet, or windy it might be!

Date:

Astronomy

Jun. 13, 2012 Rise Set
Actual Time 5:49 AM EDT 8:46 PM EDT
Civil Twilight 5:16 AM EDT 9:18 PM EDT
Nautical Twilight 4:35 AM EDT 9:59 PM EDT
Astronomical Twilight 3:48 AM EDT 10:47 PM EDT
Moon 2:00 AM EDT (6/13) 3:31 PM EDT (6/13)
Length of Visible Light 16h 01m
Length of Day
14h 56m
Waning Crescent, 29% of the Moon is Illuminated
Jun 13
Waning Crescent
Jun 19
New
Jun 26
First Quarter
Jul 3
Full
Jul 10
Last Quarter

Hourly Weather History & Observations

Time (EDT) Temp. Dew Point Humidity Pressure Visibility Wind Dir Wind Speed Gust Speed Precip Events Conditions
12:15 AM 60.8 °F 60.8 °F 100% 30.03 in 7.0 mi North 3.5 mph - N/A   Scattered Clouds
12:35 AM 60.8 °F 60.8 °F 100% 30.04 in 7.0 mi NW 4.6 mph - N/A   Scattered Clouds
12:55 AM 60.8 °F 60.8 °F 100% 30.04 in 7.0 mi NNW 4.6 mph - N/A   Clear
1:20 AM 59.0 °F 59.0 °F 100% 30.04 in 5.0 mi NW 5.8 mph - N/A   Clear
1:40 AM 59.0 °F 59.0 °F 100% 30.04 in 3.0 mi NNW 6.9 mph - N/A   Scattered Clouds
2:45 AM 59.0 °F 59.0 °F 100% 30.05 in 1.0 mi NNW 6.9 mph - N/A   Overcast
3:05 AM 59.0 °F 59.0 °F 100% 30.05 in 0.2 mi NNW 8.1 mph - N/A Fog Fog
3:50 AM 57.2 °F 57.2 °F 100% 30.05 in 1.2 mi NNW 5.8 mph - N/A   Overcast
4:10 AM 55.4 °F 55.4 °F 100% 30.06 in 0.2 mi North 8.1 mph - N/A Fog Fog
4:30 AM 55.4 °F 55.4 °F 100% 30.06 in 0.8 mi North 6.9 mph - N/A   Overcast
4:50 AM 55.4 °F 55.4 °F 100% 30.06 in 0.5 mi North 6.9 mph - N/A Fog Fog
5:15 AM 55.4 °F 55.4 °F 100% 30.07 in 1.0 mi North 5.8 mph - N/A   Overcast
5:35 AM 53.6 °F 53.6 °F 100% 30.08 in 1.0 mi NNW 4.6 mph - N/A   Overcast
5:55 AM 53.6 °F 53.6 °F 100% 30.08 in 0.2 mi NNW 5.8 mph - N/A Fog Fog
6:15 AM 53.6 °F 53.6 °F 100% 30.09 in 0.2 mi NNW 4.6 mph - N/A Fog Fog
6:40 AM 53.6 °F 53.6 °F 100% 30.10 in 0.2 mi NNW 8.1 mph - N/A Fog Fog
7:00 AM 51.8 °F 51.8 °F 100% 30.11 in 0.2 mi NNW 4.6 mph - N/A Fog Fog
7:20 AM 51.8 °F 51.8 °F 100% 30.11 in 0.2 mi NNW 5.8 mph - N/A Fog Fog
7:40 AM 51.8 °F 51.8 °F 100% 30.11 in 0.8 mi NNW 6.9 mph - N/A   Overcast
8:05 AM 51.8 °F 51.8 °F 100% 30.11 in 4.0 mi NNW 9.2 mph - N/A   Scattered Clouds
9:10 AM 53.6 °F 48.2 °F 82% 30.11 in 10.0 mi NNW 9.2 mph - N/A   Clear
9:30 AM 55.4 °F 48.2 °F 77% 30.11 in 10.0 mi NW 6.9 mph - N/A   Clear
9:50 AM 55.4 °F 48.2 °F 77% 30.12 in 10.0 mi NNW 6.9 mph - N/A   Clear
10:10 AM 57.2 °F 46.4 °F 67% 30.12 in 10.0 mi NNW 12.7 mph 18.4 mph N/A   Clear
10:35 AM 55.4 °F 42.8 °F 63% 30.12 in 10.0 mi NNW 9.2 mph - N/A   Clear
10:55 AM 59.0 °F 41.0 °F 51% 30.13 in 10.0 mi NNW 9.2 mph 18.4 mph N/A   Clear
11:15 AM - - N/A% 30.13 in - NNW 9.2 mph - N/A   Unknown
11:35 AM 59.0 °F 39.2 °F 48% 30.13 in 10.0 mi NNW 6.9 mph - N/A   Clear
12:00 PM 60.8 °F 35.6 °F 39% 30.14 in 10.0 mi NNW 9.2 mph - N/A   Clear
12:20 PM 60.8 °F 35.6 °F 39% 30.14 in 10.0 mi NNW 9.2 mph - N/A   Clear
12:40 PM 62.6 °F 35.6 °F 37% 30.14 in 10.0 mi NNW 9.2 mph - N/A   Clear
1:00 PM 62.6 °F 35.6 °F 37% 30.14 in 10.0 mi NNW 4.6 mph - N/A   Clear
1:45 PM 64.4 °F 35.6 °F 34% 30.15 in 10.0 mi NW 6.9 mph - N/A   Clear
2:05 PM 64.4 °F 35.6 °F 34% 30.15 in 10.0 mi NNW 8.1 mph - N/A   Clear
2:25 PM 64.4 °F 35.6 °F 34% 30.15 in 10.0 mi NW 4.6 mph - N/A   Clear
2:50 PM 66.2 °F 35.6 °F 32% 30.15 in 10.0 mi NW 5.8 mph - N/A   Clear
3:10 PM 66.2 °F 35.6 °F 32% 30.15 in 10.0 mi North 6.9 mph - N/A   Clear
3:30 PM 68.0 °F 35.6 °F 30% 30.14 in 10.0 mi NNW 5.8 mph - N/A   Clear
3:50 PM 68.0 °F 35.6 °F 30% 30.14 in 10.0 mi North 8.1 mph - N/A   Clear
4:15 PM 66.2 °F 37.4 °F 35% 30.15 in 10.0 mi NNW 8.1 mph - N/A   Clear
4:35 PM 68.0 °F 39.2 °F 35% 30.15 in 10.0 mi NNW 4.6 mph - N/A   Clear
4:55 PM 66.2 °F 37.4 °F 35% 30.15 in 10.0 mi NNW 4.6 mph - N/A   Clear
5:15 PM 66.2 °F 39.2 °F 37% 30.15 in 10.0 mi NNW 5.8 mph - N/A   Clear
5:40 PM 66.2 °F 37.4 °F 35% 30.14 in 10.0 mi NW 5.8 mph - N/A   Clear
6:00 PM 66.2 °F 39.2 °F 37% 30.14 in 10.0 mi NNW 5.8 mph - N/A   Clear
6:20 PM 64.4 °F 41.0 °F 42% 30.14 in 10.0 mi NW 5.8 mph - N/A   Clear
6:40 PM 64.4 °F 41.0 °F 42% 30.14 in 10.0 mi NNW 5.8 mph - N/A   Clear
7:05 PM 64.4 °F 41.0 °F 42% 30.14 in 10.0 mi NNW 6.9 mph - N/A   Clear
7:25 PM 62.6 °F 41.0 °F 45% 30.14 in 10.0 mi NNW 5.8 mph - N/A   Clear
7:45 PM 62.6 °F 42.8 °F 48% 30.14 in 10.0 mi NNW 5.8 mph - N/A   Clear
8:30 PM 59.0 °F 42.8 °F 55% 30.15 in 10.0 mi NNW 3.5 mph - N/A   Clear
8:50 PM 57.2 °F 42.8 °F 59% 30.14 in 10.0 mi North 4.6 mph - N/A   Clear
9:10 PM 55.4 °F 42.8 °F 63% 30.14 in 10.0 mi North 4.6 mph - N/A   Clear
9:55 PM 55.4 °F 44.6 °F 67% 30.16 in 10.0 mi North 3.5 mph - N/A   Clear
10:15 PM 55.4 °F 44.6 °F 67% 30.16 in 10.0 mi North 3.5 mph - N/A   Clear
10:35 PM 55.4 °F 44.6 °F 67% 30.17 in 10.0 mi North 4.6 mph - N/A   Clear
10:55 PM 55.4 °F 44.6 °F 67% 30.18 in 10.0 mi Calm Calm - N/A   Clear
11:40 PM 53.6 °F 44.6 °F 72% 30.17 in 10.0 mi Calm Calm - N/A   Clear